Regional Weather Roundup
Issued by NWS

Home | Current Version | Previous Version | Graphics & Text | Print | Product List | Glossary On
Versions: 1 2 3 4 5 6 7 8 9 10 11 12 13 14 15 16 17 18 19 20 21 22 23 24 25 26 27 28 29 30 31 32 33 34 35 36 37 38 39 40 41 42 43 44 45 46 47 48 49 50
000
ASUS43 KBIS 270102
RWRND

NORTH DAKOTA REGIONAL WEATHER ROUNDUP
NATIONAL WEATHER SERVICE BISMARCK ND
800 PM CDT SUN MAR 26 2017

NOTE: "FAIR" INDICATES FEW OR NO CLOUDS BELOW 12,000 FEET WITH NO
SIGNIFICANT WEATHER AND/OR OBSTRUCTIONS TO VISIBILITY.


NDZ001>003-009>011-017-270200-
NORTHWEST NORTH DAKOTA

CITY           SKY/WX    TMP DP  RH WIND       PRES   REMARKS
WILLISTON      FAIR      55  29  36 NW9       29.86R
MINOT          MOCLDY    50  39  66 E9        29.87R
MINOT AFB      MOCLDY    44  39  82 S8        29.87R
$$

NDZ018>021-031>035-040>046-270200-
SOUTHWEST NORTH DAKOTA

CITY           SKY/WX    TMP DP  RH WIND       PRES   REMARKS
BISMARCK       FAIR      50  37  61 E7        29.91R
DICKINSON      FAIR      51  26  37 CALM      29.86R
GARRISON         N/A     48  33  56 SE3       29.87R
HETTINGER ARPT CLEAR     51  35  54 S7        29.89S
$$

NDZ004>008-012>016-024-026-027-054-270200-
NORTHEAST NORTH DAKOTA

CITY           SKY/WX    TMP DP  RH WIND       PRES   REMARKS
GRAND FORKS    CLOUDY    44  40  85 CALM      29.94S
GRND FRKS AFB  CLOUDY    42  39  91 CALM      29.94S
DEVILS LAKE    FAIR      42  40  92 NE6       29.93R
$$

NDZ022-023-025-028>030-036>039-047>053-270200-
SOUTHEAST NORTH DAKOTA

CITY           SKY/WX    TMP DP  RH WIND       PRES   REMARKS
FARGO          MOCLDY    43  38  82 CALM      29.94S
JAMESTOWN      FAIR      45  38  76 SE5       29.91S
$$




USA.gov is the U.S. government's official web portal to all federal, state and local government web resources and services.